Temporada 2023 · Ronda 14

Italian Grand Prix

2023-09-03 · Autodromo Nazionale di Monza · Italy · Italian Grand Prix · 51Lap · 295.134km
Red Bull 1:13:41.143
Victoria de equipo 43pt P1 · P2 1-2
Red Bull +6.064
Ferrari +11.193
Vuelta rápida
1:25.072 · L43
Abandono
1
Esteban Ocon L39
Clima
29°/43°
media aire/pista · seco · humedad 42%
Coche de seguridad
0
Despliegues de SC/VSC
Uso de neumáticos Dirección de carrera
Storylines · This Grand Prix & circuit
Más victorias en este GP
Lewis Hamilton activo 5 victorias
Michael Schumacher 5 victorias
Nelson Piquet 4 victorias
Conversión pole-victoria 26/75 34.7%
Most DNFs · all-time P2
Final más ajustado · all-time P1
Circuito Info
51Lap 295.134km 76 carreras held (1950–) Récord de vuelta 1:20.901 · Lando Norris (2025)
Récords Watch · Active drivers ranked at this Grand Prix
P1 Lewis Hamilton 5 victorias · GP #1
P4 Max Verstappen 3 victorias · → Nelson Piquet -1
P11 Fernando Alonso 2 victorias · → Sebastian Vettel -1
P1 Fernando Alonso 22 salidas · GP #1
P2 Lewis Hamilton 19 salidas · → Fernando Alonso -3
P12 Sergio Pérez 14 salidas · → Jarno Trulli -1
Carrera Trace · position by lap
salida parada SG 1 5 9 13 17 21 25 29 33 37 41 45 49 FIN Verstappen · parada en boxes L20 Verstappen VER Verstappen VER Pérez · parada en boxes L21 Pérez PER Pérez PER Sainz · parada en boxes L19 Sainz SAI Sainz SAI Leclerc · parada en boxes L20 Leclerc LEC Leclerc LEC Russell · parada en boxes L19 Russell · +5s sumado tras la carrera Russell RUS Russell RUS Hamilton · parada en boxes L27 Hamilton · +5s sumado tras la carrera Hamilton HAM Hamilton HAM Albon · parada en boxes L15 Albon ALB Albon ALB Norris · parada en boxes L22 Norris NOR Norris NOR Alonso · parada en boxes L21 Alonso ALO Alonso ALO Bottas · parada en boxes L25 Bottas BOT Bottas BOT Lawson · parada en boxes L13 Lawson · parada en boxes L33 Lawson LAW Lawson LAW Piastri · parada en boxes L23 Piastri · parada en boxes L41 Piastri · +5s sumado tras la carrera Piastri PIA Piastri PIA Sargeant · parada en boxes L14 Sargeant · +5s sumado tras la carrera Sargeant SAR Sargeant SAR Zhou · parada en boxes L11 Zhou · parada en boxes L33 Zhou ZHO Zhou ZHO Gasly · parada en boxes L10 Gasly · parada en boxes L31 Gasly GAS Gasly GAS Stroll · parada en boxes L20 Stroll STR Stroll STR Hülkenberg · parada en boxes L14 Hülkenberg · parada en boxes L39 Hülkenberg HUL Hülkenberg HUL Magnussen · parada en boxes L12 Magnussen · parada en boxes L33 Magnussen MAG Magnussen MAG Ocon · parada en boxes L24 Ocon · abandono L39 Ocon OCO Ocon OCO Tsunoda · detenido L0 · clasificado P20 Tsunoda TSU Tsunoda TSU
parada en boxes sanción cumplida en boxes SG Parrilla de salida FIN clasificación oficial sanción sumada tras la carrera coche detenido posición en cada vuelta (desde 1996)
PosPilotoTeamParrillaVueltaTiempo / EstadoPuntos
1 1 Max Verstappen Red Bull 2 51 1:13:41.143 25
2 11 Sergio Pérez Red Bull 5 51 +6.064 18
3 55 Carlos Sainz Ferrari 1 51 +11.193 15
4 16 Charles Leclerc Ferrari 3 51 +11.377 12
5 63 George Russell Mercedes 4 51 +23.028 10
6 44 Lewis Hamilton Mercedes 8 51 +42.679 8
7 23 Alexander Albon Williams 6 51 +45.106 6
8 4 Lando Norris McLaren 9 51 +45.449 4
9 14 Fernando Alonso Aston Martin 10 51 +46.294 2
10 77 Valtteri Bottas Alfa Romeo 14 51 +1:04.056 1
11 40 Liam Lawson AlphaTauri 12 51 +1:10.638
12 81 Oscar Piastri FL McLaren 7 51 +1:13.074
13 2 Logan Sargeant Williams 15 51 +1:18.557
14 24 Guanyu Zhou Alfa Romeo 16 51 +1:20.164
15 10 Pierre Gasly Alpine F1 Team 17 51 +1:22.510
16 18 Lance Stroll Aston Martin 20 51 +1:27.266
17 27 Nico Hülkenberg Haas F1 Team 13 50 +2.093
18 20 Kevin Magnussen Haas F1 Team 19 50 +12.624
R 31 Esteban Ocon Alpine F1 Team 18 39 Retired
W 22 Yuki Tsunoda AlphaTauri 11 0 Did not start
PosPilotoTeamQ1Q2Q3Diferencia con la pole
1 55 Carlos Sainz Ferrari 1:21.965 1:20.991 1:20.294 POLE Q3
2 1 Max Verstappen Red Bull 1:21.573 1:20.937 1:20.307 +0.013 Q3
3 16 Charles Leclerc Ferrari 1:21.788 1:20.977 1:20.361 +0.067 Q3
4 63 George Russell Mercedes 1:22.148 1:21.382 1:20.671 +0.377 Q3
5 11 Sergio Pérez Red Bull 1:21.911 1:21.240 1:20.688 +0.394 Q3
6 23 Alexander Albon Williams 1:21.661 1:21.272 1:20.760 +0.466 Q3
7 81 Oscar Piastri McLaren 1:22.106 1:21.527 1:20.785 +0.491 Q3
8 44 Lewis Hamilton Mercedes 1:21.977 1:21.369 1:20.820 +0.526 Q3
9 4 Lando Norris McLaren 1:21.995 1:21.581 1:20.979 +0.685 Q3
10 14 Fernando Alonso Aston Martin 1:22.043 1:21.543 1:21.417 +1.123 Q3
11 22 Yuki Tsunoda AlphaTauri 1:21.852 1:21.594 +1.300 Q2
12 40 Liam Lawson AlphaTauri 1:22.112 1:21.758 +1.464 Q2
13 27 Nico Hülkenberg Haas F1 Team 1:22.343 1:21.776 +1.482 Q2
14 77 Valtteri Bottas Alfa Romeo 1:22.249 1:21.940 +1.646 Q2
15 2 Logan Sargeant Williams 1:21.930 1:21.944 +1.636 Q1
16 24 Guanyu Zhou Alfa Romeo 1:22.390 +2.096 Q1
17 10 Pierre Gasly Alpine F1 Team 1:22.545 +2.251 Q1
18 31 Esteban Ocon Alpine F1 Team 1:22.548 +2.254 Q1
19 20 Kevin Magnussen Haas F1 Team 1:22.592 +2.298 Q1
20 18 Lance Stroll Aston Martin 1:22.860 +2.566 Q1
Parrilla de salida
Oficial
Final grid as clasificado, including any desde el pit lane salidas. Source: Jolpica-F1. The arrow compares the grid slot with the clasificación classification; hover a drop to see the stewards document behind it.
No hay datos de esta sesión.
PosPilotoMejor vueltaDiferenciaVueltas
1 1 Max Verstappen 1:22.657 31
2 55 Carlos Sainz 1:22.703 +0.046 28
3 11 Sergio Pérez 1:22.834 +0.177 30
4 16 Charles Leclerc 1:22.966 +0.309 22
5 63 George Russell 1:23.189 +0.532 28
6 14 Fernando Alonso 1:23.214 +0.557 24
7 4 Lando Norris 1:23.241 +0.584 22
8 44 Lewis Hamilton 1:23.269 +0.612 26
9 22 Yuki Tsunoda 1:23.271 +0.614 23
10 23 Alexander Albon 1:23.444 +0.787 18
11 81 Oscar Piastri 1:23.446 +0.789 24
12 2 Logan Sargeant 1:23.661 +1.004 21
13 40 Liam Lawson 1:23.833 +1.176 29
14 10 Pierre Gasly 1:23.931 +1.274 26
15 77 Valtteri Bottas 1:23.952 +1.295 17
16 27 Nico Hülkenberg 1:24.067 +1.410 23
17 31 Esteban Ocon 1:24.090 +1.433 26
18 20 Kevin Magnussen 1:24.217 +1.560 24
19 24 Guanyu Zhou 1:24.232 +1.575 17
Classified by best lap · source OpenF1 (2023+)
PosPilotoMejor vueltaDiferenciaVueltas
1 55 Carlos Sainz 1:21.355 23
2 4 Lando Norris 1:21.374 +0.019 20
3 11 Sergio Pérez 1:21.540 +0.185 17
4 81 Oscar Piastri 1:21.545 +0.190 21
5 1 Max Verstappen 1:21.631 +0.276 20
6 16 Charles Leclerc 1:21.716 +0.361 23
7 23 Alexander Albon 1:21.979 +0.624 19
8 14 Fernando Alonso 1:22.071 +0.716 16
9 63 George Russell 1:22.176 +0.821 20
10 27 Nico Hülkenberg 1:22.291 +0.936 19
11 20 Kevin Magnussen 1:22.574 +1.219 21
12 77 Valtteri Bottas 1:22.595 +1.240 19
13 10 Pierre Gasly 1:22.651 +1.296 22
14 22 Yuki Tsunoda 1:22.696 +1.341 23
15 31 Esteban Ocon 1:22.716 +1.361 22
16 2 Logan Sargeant 1:22.755 +1.400 24
17 44 Lewis Hamilton 1:22.783 +1.428 23
18 40 Liam Lawson 1:23.167 +1.812 23
19 24 Guanyu Zhou 1:23.346 +1.991 20
20 18 Lance Stroll 18:49.701 +1,048.346 2
Classified by best lap · source OpenF1 (2023+)
PosPilotoMejor vueltaDiferenciaVueltas
1 55 Carlos Sainz 1:20.912 23
2 1 Max Verstappen 1:20.998 +0.086 23
3 44 Lewis Hamilton 1:21.453 +0.541 23
4 16 Charles Leclerc 1:21.486 +0.574 23
5 14 Fernando Alonso 1:21.711 +0.799 24
6 63 George Russell 1:21.730 +0.818 25
7 20 Kevin Magnussen 1:21.884 +0.972 21
8 27 Nico Hülkenberg 1:21.985 +1.073 27
9 23 Alexander Albon 1:22.054 +1.142 18
10 11 Sergio Pérez 1:22.192 +1.280 16
11 18 Lance Stroll 1:22.245 +1.333 31
12 40 Liam Lawson 1:22.296 +1.384 29
13 22 Yuki Tsunoda 1:22.297 +1.385 28
14 81 Oscar Piastri 1:22.302 +1.390 17
15 2 Logan Sargeant 1:22.380 +1.468 23
16 77 Valtteri Bottas 1:22.511 +1.599 30
17 4 Lando Norris 1:22.515 +1.603 24
18 31 Esteban Ocon 1:22.739 +1.827 20
19 24 Guanyu Zhou 1:22.742 +1.830 30
20 10 Pierre Gasly 1:22.852 +1.940 22
Classified by best lap · source OpenF1 (2023+)
#PilotoTiempo de vueltaVuelta
1 81 Oscar Piastri 1:25.072 L43
2 1 Max Verstappen 1:25.240 L33
3 1 Max Verstappen 1:25.398 L30
4 1 Max Verstappen 1:25.410 L32
5 1 Max Verstappen 1:25.434 L28
6 1 Max Verstappen 1:25.471 L29
7 1 Max Verstappen 1:25.486 L39
8 1 Max Verstappen 1:25.501 L27
9 55 Carlos Sainz 1:25.501 L30
10 1 Max Verstappen 1:25.502 L31
Top 10 más rápida race vueltas — #1 is the más rápida lap of la carrera(FL).
Paradas · cómo se comparan
24s 26s 28s 30s 32s mediana 24.5s Lando Norris · L22 · 23.727s Sergio Pérez · L21 · 23.819s Charles Leclerc · L20 · 23.931s Oscar Piastri · L23 · 24.133s Liam Lawson · L13 · 24.212s George Russell · L19 · 24.215s Max Verstappen · L20 · 24.228s Esteban Ocon · L24 · 24.249s Lewis Hamilton · L27 · 24.255s Liam Lawson · L33 · 24.281s Nico Hülkenberg · L39 · 24.328s Guanyu Zhou · L11 · 24.396s Alexander Albon · L15 · 24.538s Valtteri Bottas · L25 · 24.658s Kevin Magnussen · L12 · 24.660s Pierre Gasly · L31 · 24.686s Kevin Magnussen · L33 · 24.765s Logan Sargeant · L14 · 24.779s Fernando Alonso · L21 · 24.798s Carlos Sainz · L19 · 25.183s Lance Stroll · L20 · 25.667s Guanyu Zhou · L33 · 25.959s Nico Hülkenberg · L14 · 26.095s Pierre Gasly · L10 · 27.376s Oscar Piastri · L41 · 31.799s
más rápida 23.727s Lando Norris más lenta 31.799s Oscar Piastri tiempo de paso por el desde el pit lane — un punto por parada
PilotoParadaVueltaTiempoPaso por el desde el pit lane
10 Pierre Gasly 1 10 15:38:07 27.376s
24 Guanyu Zhou 1 11 15:39:33 24.396s
20 Kevin Magnussen 1 12 15:41:12 24.660s
40 Liam Lawson 1 13 15:42:27 24.212s
2 Logan Sargeant 1 14 15:43:57 24.779s
27 Nico Hülkenberg 1 14 15:43:56 26.095s
23 Alexander Albon 1 15 15:45:13 24.538s
55 Carlos Sainz 1 19 15:50:52 25.183s
63 George Russell 1 19 15:50:56 24.215s
1 Max Verstappen 1 20 15:52:13 24.228s
18 Lance Stroll 1 20 15:52:50 25.667s
16 Charles Leclerc 1 20 15:52:19 23.931s
14 Fernando Alonso 1 21 15:54:03 24.798s
11 Sergio Pérez 1 21 15:53:46 23.819s
4 Lando Norris 1 22 15:55:26 23.727s
81 Oscar Piastri 1 23 15:56:53 24.133s
31 Esteban Ocon 1 24 15:58:45 24.249s
77 Valtteri Bottas 1 25 16:00:06 24.658s
44 Lewis Hamilton 1 27 16:02:46 24.255s
10 Pierre Gasly 2 31 16:09:08 24.686s
40 Liam Lawson 2 33 16:11:56 24.281s
20 Kevin Magnussen 2 33 16:12:15 24.765s
24 Guanyu Zhou 2 33 16:11:58 25.959s
27 Nico Hülkenberg 2 39 16:20:52 24.328s
81 Oscar Piastri 2 41 16:23:21 31.799s
paradas
SG 10 20 30 40 L51
1
1
M19
H32
11
1
M20
H31
55
1
M18
H33
16
1
M19
H32
63
1
M18
H33
44
1
H26·+3
M25
23
1
M14·+3
H37·+3
4
1
M21
H30·+4
14
1
M20
H31·+3
77
1
H24·+3
M27·+3
40
2
M12·+3
H20·+3
M19
81
2
M22
H18·+5
M11·+3
2
1
M13·+3
H38·+3
24
2
M10
H22·+3
M19
10
2
M9
H21·+3
M21
18
1
M19
H32·+4
27
2
M13·+3
H25·+5
M12·+3
20
2
H11·+4
M21
M18
31
1
M23
H16·+3
22
0
M1·+3
S Soft M Medium H Hard I Intermediate W Wet SC·VSC parada en boxes sanción cumplida en boxes
Carrera · ancho de barra = vueltas con ese juego, ·+N = montado usado con N vueltas previas · fuente OpenF1 (2023+)
Compuestos designados para este Gran Premio
C3 Duro C4 Medio C5 Blando
Pirelli designa tres de sus compuestos secos para cada prueba; cuanto mayor es el número C, más blando es el neumático. Documento FIA ↗
Más puestos ganados en pista
77
+14
P14→P10
18
+13
P20→P16
44
+12
P8→P6
40
+11
P12→P11
81
+11
P7→P12
31
+10
P18→P—
11
+9
P5→P2
4
+9
P9→P8
Más puestos perdidos
Oscar Piastri −16 Nico Hülkenberg −13 Esteban Ocon −12
Carrera · Suma de posiciones ganadas en pista vuelta a vuelta — se excluyen la vuelta de salida y las vueltas de boxes propias. Datos de vueltas de carrera desde 1996.
PilotoTipoVueltaCumplidaImpuestaMotivo
81 Oscar Piastri Time penalty Tras la carrera +5s Car 81 left the track at T5 and gained a lasting advantage. (5 second time penalty.) Documento FIA ↗
Cumplida Tras la carrera · +5s Car 81 left the track at T5 and gained a lasting advantage. (5 second time penalty.) Documento FIA ↗
63 George Russell Time penalty 24 Tras la carrera +5s Car 63 left the track at T1 and gained a lasting advantage. (5 second time penalty.) Documento FIA ↗
Vuelta 24 · Cumplida Tras la carrera · +5s Car 63 left the track at T1 and gained a lasting advantage. (5 second time penalty.) Documento FIA ↗
44 Lewis Hamilton Time penalty 44 Tras la carrera +5s · 2pt Causing a collision. (5 second time penalty. 2 penalty points (total of 4 for the 12 month period).) Documento FIA ↗
Vuelta 44 · Cumplida Tras la carrera · +5s · 2pt Causing a collision. (5 second time penalty. 2 penalty points (total of 4 for the 12 month period).) Documento FIA ↗
2 Logan Sargeant Time penalty 50 Tras la carrera +5s · 2pt Causing a collision. (5 second time penalty. 2 penalty points (total of 2 for the 12 month period).) Documento FIA ↗
Vuelta 50 · Cumplida Tras la carrera · +5s · 2pt Causing a collision. (5 second time penalty. 2 penalty points (total of 2 for the 12 month period).) Documento FIA ↗
Vuelta = vuelta en que se impuso la sanción · Cumplida = vuelta en que se cumplió en boxes (en blanco: se sumó al tiempo de carrera)
Time, drive-through and stop-go penalties come from race control messages (OpenF1, 2023+). Parrilla penalties never appear there — the stewards publish them as documents after the session — so they are worked back from the starting grid against the clasificación classification, which gives places actually lost rather than the figure written in the decision.
PilotoTipoVueltaCumplidaImpuestaMotivo
10 Pierre Gasly Vueltas eliminadas TRACK LIMITS
TRACK LIMITS
Vuelta = vuelta en que se impuso la sanción · Cumplida = vuelta en que se cumplió en boxes (en blanco: se sumó al tiempo de carrera)
Time, drive-through and stop-go penalties come from race control messages (OpenF1, 2023+). Parrilla penalties never appear there — the stewards publish them as documents after the session — so they are worked back from the starting grid against the clasificación classification, which gives places actually lost rather than the figure written in the decision.
PilotoTipoVueltaCumplidaImpuestaMotivo
24 Guanyu Zhou Black-and-white flag warning IMPEDING
IMPEDING
55 Carlos Sainz Black-and-white flag warning IMPEDING
IMPEDING
Vuelta = vuelta en que se impuso la sanción · Cumplida = vuelta en que se cumplió en boxes (en blanco: se sumó al tiempo de carrera)
Time, drive-through and stop-go penalties come from race control messages (OpenF1, 2023+). Parrilla penalties never appear there — the stewards publish them as documents after the session — so they are worked back from the starting grid against the clasificación classification, which gives places actually lost rather than the figure written in the decision.
PilotoTipoVueltaCumplidaImpuestaMotivo
1 Max Verstappen Fine €500 Pit lane speeding – 84.8 km/h (The competitor (Oracle Red Bull Racing) is fined €500.) Documento FIA ↗
€500 Pit lane speeding – 84.8 km/h (The competitor (Oracle Red Bull Racing) is fined €500.) Documento FIA ↗
Vuelta = vuelta en que se impuso la sanción · Cumplida = vuelta en que se cumplió en boxes (en blanco: se sumó al tiempo de carrera)
Time, drive-through and stop-go penalties come from race control messages (OpenF1, 2023+). Parrilla penalties never appear there — the stewards publish them as documents after the session — so they are worked back from the starting grid against the clasificación classification, which gives places actually lost rather than the figure written in the decision.
DocTítuloAsuntoPublished(CET)
Event Notes - Pirelli Preview ↗ 2023-08-30 12:02
2023-08-30 12:02 CET
Event Notes - Circuito Map, Pit Lane and Red Zone ↗ 2023-08-31 11:25
2023-08-31 11:25 CET
Carrera Director's Event Notes ↗ 2023-08-31 15:40
2023-08-31 15:40 CET
RNCs usados per driver up to now ↗ 2023-09-01 09:41
2023-09-01 09:41 CET
PU elements usados per driver up to now ↗ 2023-09-01 09:41
2023-09-01 09:41 CET
Car Display Procedure V2 ↗ 2023-09-01 09:51
2023-09-01 09:51 CET
Carrera Director's Event Notes V2 ↗ 2023-09-01 11:20
2023-09-01 11:20 CET
Entry List ↗ 2023-09-01 12:01
2023-09-01 12:01 CET
Self scrutineering ↗ 2023-09-01 12:25
2023-09-01 12:25 CET
New RNCs for this Competition ↗ 2023-09-01 13:42
2023-09-01 13:42 CET
New PU elements for this Competition ↗ 2023-09-01 13:56
2023-09-01 13:56 CET
P1 Classification ↗ 2023-09-01 14:50
2023-09-01 14:50 CET
Infringement - Car 1 - Pit Lane Speeding ↗ 1 Max Verstappen 2023-09-01 18:05
1 Max Verstappen 2023-09-01 18:05 CET
P2 Classification ↗ 2023-09-01 18:15
2023-09-01 18:15 CET
RNCs usados outside allocation ↗ 2023-09-01 19:29
2023-09-01 19:29 CET
P1 and P2 scrutineering ↗ 2023-09-01 19:29
2023-09-01 19:29 CET
Carrera Director's Note - SC2-SC1 Time ↗ 2023-09-01 20:15
2023-09-01 20:15 CET
Carrera Director's Event Notes v3 ↗ 2023-09-02 09:32
2023-09-02 09:32 CET
Curfew ↗ 2023-09-02 10:39
2023-09-02 10:39 CET
Post-Clasificación Procedure ↗ 2023-09-02 10:46
2023-09-02 10:46 CET
Additional Intermediate Neumáticos ↗ 2023-09-02 11:25
2023-09-02 11:25 CET
New RNCs for this Competition ↗ 2023-09-02 12:34
2023-09-02 12:34 CET
P3 Classification ↗ 2023-09-02 13:45
2023-09-02 13:45 CET
Clasificación Deleted Vuelta Times ↗ 2023-09-02 17:11
2023-09-02 17:11 CET
Provisional Clasificación Classification ↗ 2023-09-02 17:20
2023-09-02 17:20 CET
Clasificación SC2-SC1 Times ↗ 2023-09-02 17:21
2023-09-02 17:21 CET
P3 and Clasificación scrutineering ↗ 2023-09-02 19:01
2023-09-02 19:01 CET
Final Clasificación Classification ↗ 2023-09-02 19:10
2023-09-02 19:10 CET
Provisional Starting Parrilla ↗ 2023-09-02 19:20
2023-09-02 19:20 CET
Pre-Carrera Procedure ↗ 2023-09-03 12:40
2023-09-03 12:40 CET
Post-Carrera Procedure ↗ 2023-09-03 12:41
2023-09-03 12:41 CET
Parts and parameters been replaced and or changed during Parc Fermé ↗ 2023-09-03 12:57
2023-09-03 12:57 CET
Final Starting Parrilla ↗ 2023-09-03 13:00
2023-09-03 13:00 CET
Carrera Deleted Vuelta Times ↗ 2023-09-03 16:50
2023-09-03 16:50 CET
Provisional Carrera Classification ↗ 2023-09-03 17:00
2023-09-03 17:00 CET
Infringement - Car 63 - Leaving the track ↗ 63 George Russell 2023-09-03 17:18
63 George Russell 2023-09-03 17:18 CET
Infringement - Car 81 - Leaving the track ↗ 81 Oscar Piastri 2023-09-03 17:18
81 Oscar Piastri 2023-09-03 17:18 CET
Infringement - Car 2 - Causing a Collision ↗ 2 Logan Sargeant 2023-09-03 17:18
2 Logan Sargeant 2023-09-03 17:18 CET
Infringement - Car 44 - Causing a Collision ↗ 44 Lewis Hamilton 2023-09-03 17:19
44 Lewis Hamilton 2023-09-03 17:19 CET
Carrera scrutineering ↗ 2023-09-03 18:20
2023-09-03 18:20 CET
Final Carrera Classification ↗ 2023-09-03 18:25
2023-09-03 18:25 CET
Campeonato Puntos ↗ 2023-09-03 18:30
2023-09-03 18:30 CET
FIA official decisions and documents (fia.com) · PDF original PDF links
Record Basis · Calculation basis
Carrera order is the final classification(post-race penalties applied) · clasificación session data 2003+ · lap times 1996+ · pit stops 2012+ (pit-lane transit, not stationary time) · Abandono = Finished(Finished·+N Vueltas) non-Finished statuses
Fuentes de datos: Jolpica-F1 (Ergast compatible API) · weather·Dirección de carrera OpenF1 (2023+) · Last fetched: 2026-09-05 14:15